Location: Arlington
(40.6323°N, 74.1651°W)
Time: 20:20:16
(UTC+00:00)

Cosmos 2228 Rocket - Pass Details

Date: 22 November 2019
Orbit: 619 x 651 km, 82.5° (Epoch: 09 December)

Event Time Altitude Azimuth Distance (km) Brightness Sun altitude
Rises 23:19:49 0° 194° (SSW) 2,909 6.8 -19.8°
Reaches altitude 10° 23:22:03 10° 198° (SSW) 2,012 6.0 -20.3°
Maximum altitude 23:26:28 63° 279° (W) 717 3.5 -21.1°
Drops below altitude 10° 23:30:59 10° 1° (N) 2,047 5.6 -21.9°
Enters shadow 23:32:03 - 3° (N) 2,470 6.0 -22.1°
